When you browse on this site, cookies collect data to enhance your experience and personalize the content and advertising you see.
Visit our Privacy Policy to learn more. By continuing to use the site, you agree to this use of cookies and data.
  • en France
  • Liste des pays
  • À 7 jours
  • Température de l'eau
  • Carte météo
  • Widgets météo
  • user-avatar
    Se connecter

    Météo par heure à Essen

    Ce jour, 18 Février, Mardi

    Heure Température Précipitation Vent Pression Humidité
    00:00 +5°C° 0.3 mm 7 m/s 754 mmHg 76%
    01:00 +5°C° 0.4 mm 7 m/s 754 mmHg 75%
    02:00 +5°C° 0.4 mm 7 m/s 754 mmHg 75%
    03:00 +5°C° 0.4 mm 7 m/s 755 mmHg 74%
    04:00 +4°C° 0.2 mm 7 m/s 755 mmHg 74%
    05:00 +4°C° 0.2 mm 6 m/s 756 mmHg 74%
    06:00 +3°C° 0.2 mm 6 m/s 756 mmHg 74%
    07:00 +4°C° 0 mm 6 m/s 757 mmHg 73%
    08:00 +4°C° 0 mm 7 m/s 757 mmHg 71%
    09:00 +4°C° 0 mm 7 m/s 758 mmHg 70%
    10:00 +5°C° 0.2 mm 7 m/s 758 mmHg 68%
    11:00 +5°C° 0.2 mm 7 m/s 757 mmHg 67%
    12:00 +5°C° 0.2 mm 7 m/s 757 mmHg 65%
    13:00 +5°C° 0.2 mm 7 m/s 757 mmHg 66%
    14:00 +5°C° 0.2 mm 7 m/s 757 mmHg 67%
    15:00 +5°C° 0.2 mm 7 m/s 757 mmHg 68%
    16:00 +5°C° 0.1 mm 6 m/s 757 mmHg 70%
    17:00 +5°C° 0.1 mm 6 m/s 756 mmHg 71%
    18:00 +5°C° 0.1 mm 6 m/s 756 mmHg 73%
    19:00 +5°C° 0 mm 6 m/s 756 mmHg 73%
    20:00 +5°C° 0 mm 6 m/s 755 mmHg 74%
    21:00 +5°C° 0 mm 6 m/s 754 mmHg 74%
    22:00 +4°C° 0.4 mm 7 m/s 754 mmHg 78%
    23:00 +4°C° 0.4 mm 7 m/s 753 mmHg 81%

    Demain, 19 Février, Mercredi

    Heure Température Précipitation Vent Pression Humidité
    00:00 +4°C° 0.4 mm 7 m/s 752 mmHg 85%
    01:00 +4°C° 0.9 mm 7 m/s 752 mmHg 86%
    02:00 +3°C° 0.9 mm 7 m/s 751 mmHg 87%
    03:00 +3°C° 0.9 mm 7 m/s 751 mmHg 88%
    04:00 +3°C° 0.4 mm 7 m/s 751 mmHg 83%
    05:00 +2°C° 0.4 mm 6 m/s 752 mmHg 78%
    06:00 +2°C° 0.4 mm 6 m/s 753 mmHg 72%
    07:00 +2°C° 0.1 mm 6 m/s 754 mmHg 71%
    08:00 +2°C° 0.1 mm 6 m/s 754 mmHg 69%
    09:00 +3°C° 0.1 mm 6 m/s 755 mmHg 67%
    10:00 +3°C° 0.1 mm 6 m/s 755 mmHg 65%
    11:00 +3°C° 0.1 mm 6 m/s 756 mmHg 64%
    12:00 +3°C° 0.1 mm 6 m/s 756 mmHg 62%
    13:00 +4°C° 0 mm 6 m/s 756 mmHg 61%
    14:00 +4°C° 0 mm 6 m/s 756 mmHg 60%
    15:00 +5°C° 0 mm 5 m/s 757 mmHg 59%
    16:00 +3°C° 0 mm 5 m/s 757 mmHg 62%
    17:00 +4°C° 0 mm 4 m/s 757 mmHg 65%
    18:00 +3°C° 0 mm 3 m/s 757 mmHg 68%
    19:00 +3°C° 0 mm 4 m/s 757 mmHg 70%
    20:00 +3°C° 0 mm 4 m/s 756 mmHg 71%
    21:00 +3°C° 0 mm 4 m/s 756 mmHg 72%
    22:00 +4°C° 0.1 mm 4 m/s 756 mmHg 76%
    23:00 +3°C° 0.1 mm 5 m/s 755 mmHg 80%

    Après-demain, 20 Février, Jeudi

    Heure Température Précipitation Vent Pression Humidité
    00:00 +5°C° 0.1 mm 5 m/s 755 mmHg 84%
    01:00 +5°C° 0.2 mm 5 m/s 754 mmHg 85%
    02:00 +5°C° 0.2 mm 5 m/s 754 mmHg 86%
    03:00 +6°C° 0.2 mm 5 m/s 753 mmHg 86%
    04:00 +6°C° 0.1 mm 5 m/s 753 mmHg 85%
    05:00 +6°C° 0.1 mm 5 m/s 753 mmHg 84%
    06:00 +6°C° 0.1 mm 5 m/s 753 mmHg 83%
    07:00 +6°C° 0 mm 5 m/s 753 mmHg 80%
    08:00 +7°C° 0 mm 5 m/s 753 mmHg 77%
    09:00 +7°C° 0 mm 6 m/s 753 mmHg 74%
    10:00 +7°C° 0 mm 6 m/s 753 mmHg 71%
    11:00 +8°C° 0 mm 6 m/s 753 mmHg 68%
    12:00 +8°C° 0 mm 6 m/s 752 mmHg 64%
    13:00 +8°C° 0 mm 6 m/s 752 mmHg 66%
    14:00 +8°C° 0 mm 6 m/s 752 mmHg 67%
    15:00 +8°C° 0 mm 6 m/s 751 mmHg 68%
    16:00 +8°C° 0 mm 6 m/s 751 mmHg 69%
    17:00 +8°C° 0 mm 7 m/s 750 mmHg 70%
    18:00 +8°C° 0 mm 7 m/s 750 mmHg 71%
    19:00 +6°C° 0.2 mm 7 m/s 750 mmHg 73%
    20:00 +6°C° 0.2 mm 8 m/s 749 mmHg 75%
    21:00 +6°C° 0.2 mm 9 m/s 749 mmHg 78%
    22:00 +5°C° 1 mm 8 m/s 750 mmHg 76%
    23:00 +4°C° 1 mm 7 m/s 752 mmHg 75%

    21 Février, Vendredi

    Heure Température Précipitation Vent Pression Humidité
    00:00 +3°C° 1 mm 6 m/s 753 mmHg 74%
    01:00 +3°C° 0.2 mm 6 m/s 754 mmHg 71%
    02:00 +2°C° 0.2 mm 6 m/s 755 mmHg 68%
    03:00 +2°C° 0.2 mm 6 m/s 756 mmHg 65%
    04:00 +2°C° 0 mm 6 m/s 757 mmHg 67%
    05:00 +1°C° 0 mm 6 m/s 758 mmHg 69%
    06:00 +1°C° 0 mm 6 m/s 759 mmHg 70%
    13:00 +5°C° 0 mm 5 m/s 762 mmHg 61%
    14:00 +5°C° 0 mm 5 m/s 762 mmHg 60%
    15:00 +5°C° 0 mm 5 m/s 762 mmHg 60%
    16:00 +5°C° 0 mm 5 m/s 762 mmHg 62%
    17:00 +5°C° 0 mm 5 m/s 762 mmHg 64%
    18:00 +5°C° 0 mm 4 m/s 762 mmHg 66%
    19:00 +5°C° 0 mm 5 m/s 762 mmHg 67%
    20:00 +3°C° 0 mm 5 m/s 762 mmHg 69%
    21:00 +3°C° 0 mm 5 m/s 762 mmHg 71%
    22:00 +3°C° 0 mm 5 m/s 762 mmHg 72%
    23:00 +3°C° 0 mm 5 m/s 761 mmHg 74%

    22 Février, Samedi

    Heure Température Précipitation Vent Pression Humidité
    00:00 +3°C° 0 mm 6 m/s 761 mmHg 75%
    01:00 +3°C° 0 mm 6 m/s 761 mmHg 75%
    02:00 +3°C° 0 mm 6 m/s 760 mmHg 75%
    03:00 +3°C° 0 mm 6 m/s 760 mmHg 75%
    04:00 +2°C° 0 mm 6 m/s 760 mmHg 74%
    05:00 +2°C° 0 mm 6 m/s 759 mmHg 74%
    06:00 +2°C° 0 mm 6 m/s 759 mmHg 74%
    07:00 +3°C° 0 mm 7 m/s 759 mmHg 71%
    08:00 +3°C° 0 mm 7 m/s 759 mmHg 69%
    09:00 +4°C° 0 mm 7 m/s 759 mmHg 66%
    10:00 +4°C° 0 mm 7 m/s 759 mmHg 65%
    11:00 +5°C° 0 mm 8 m/s 759 mmHg 65%
    12:00 +5°C° 0 mm 8 m/s 759 mmHg 64%
    13:00 +6°C° 0 mm 8 m/s 759 mmHg 67%
    14:00 +6°C° 0 mm 8 m/s 758 mmHg 70%
    15:00 +6°C° 0 mm 7 m/s 758 mmHg 72%
    16:00 +7°C° 0 mm 8 m/s 758 mmHg 74%
    17:00 +7°C° 0 mm 8 m/s 758 mmHg 76%
    18:00 +7°C° 0 mm 8 m/s 759 mmHg 79%
    19:00 +8°C° 0 mm 7 m/s 759 mmHg 80%
    20:00 +9°C° 0 mm 7 m/s 759 mmHg 81%
    21:00 +9°C° 0 mm 7 m/s 759 mmHg 82%
    22:00 +9°C° 0.1 mm 7 m/s 759 mmHg 84%
    23:00 +9°C° 0.1 mm 6 m/s 759 mmHg 85%

    23 Février, Dimanche

    Heure Température Précipitation Vent Pression Humidité
    00:00 +9°C° 0.1 mm 6 m/s 759 mmHg 86%
    01:00 +9°C° 0.1 mm 6 m/s 759 mmHg 88%
    02:00 +9°C° 0.1 mm 5 m/s 759 mmHg 89%
    03:00 +9°C° 0.1 mm 5 m/s 759 mmHg 91%
    04:00 +9°C° 0.2 mm 5 m/s 759 mmHg 91%
    05:00 +9°C° 0.2 mm 5 m/s 759 mmHg 91%
    06:00 +9°C° 0.2 mm 5 m/s 759 mmHg 92%
    07:00 +9°C° 0.2 mm 6 m/s 759 mmHg 90%
    08:00 +10°C° 0.2 mm 6 m/s 758 mmHg 88%
    09:00 +10°C° 0.2 mm 7 m/s 758 mmHg 86%
    10:00 +10°C° 0 mm 7 m/s 758 mmHg 85%
    11:00 +11°C° 0 mm 8 m/s 758 mmHg 83%
    12:00 +11°C° 0 mm 8 m/s 758 mmHg 82%
    13:00 +11°C° 0 mm 8 m/s 758 mmHg 81%
    14:00 +11°C° 0 mm 8 m/s 757 mmHg 81%
    15:00 +11°C° 0 mm 8 m/s 757 mmHg 80%
    16:00 +11°C° 0 mm 7 m/s 757 mmHg 80%
    17:00 +11°C° 0 mm 7 m/s 757 mmHg 80%
    18:00 +11°C° 0 mm 7 m/s 757 mmHg 80%
    19:00 +11°C° 0 mm 7 m/s 757 mmHg 80%
    20:00 +11°C° 0 mm 7 m/s 757 mmHg 80%
    21:00 +11°C° 0 mm 7 m/s 757 mmHg 80%
    22:00 +11°C° 0 mm 7 m/s 756 mmHg 80%
    23:00 +11°C° 0 mm 7 m/s 756 mmHg 81%
    Voir plus